Etusivu
METAR-TAF:

METAR-TAF

Lentoasemat :

Torsbyn, Ruotsi

Leveyspiiri: 60-09-17N, Pituuspiiri: 12-59-40E, korkeus merenpinnasta: 120 m

Tämänhetkinen sää

Tämä raportti tehtiin 43 minuuttia sitten, kello 01.20 UTC
Tuuli 8 kn etelästä
Lämpötila -1°C
Kosteus 93%
Ilmanpaine 1002 hPa
Näkyvyys 10 km tai enemmän

METAR: ESST 250120Z AUTO 18008KT 9999 NCD M01/M02 Q1002

Aika: 03:03 (02:03 UTC)


TAF: puuttuu

Säähavainnot ja -ennusteet yli 4000 lentoasemalta (METAR- ja TAF-raportit).

Käytössä olevat sääasemat on merkitty karttaan keltaisilla ja punaisilla pisteillä.

Aseta hiiri pisteen päälle nähdäksesi sääaseman nimen.

Klikkaa sitten nähdäksesi säähavainnot ja -ennusteet.

Kartan vaihtaminen: klikkaa mustalla rastilla varustettuja vihreitä pisteitä, niin voit zoomata sisään; viivalla varustettua vihreää pistettä, niin voit zoomata ulos tai vihreitä nuolia, niin pääset viereisille kartoille.


METAR-TAF: